Regional Weather Roundup
Issued by NWS

Home | Current Version | Previous Version | Graphics & Text | Print | Product List | Glossary On
Versions: 1 2 3 4 5 6 7 8 9 10 11 12 13 14 15 16 17 18 19 20 21 22 23 24 25 26 27 28 29 30 31 32 33 34 35 36 37 38 39 40 41 42 43 44 45 46 47 48 49 50
000
ASUS43 KMPX 200401
RWRMN
WEATHER ROUNDUP FOR MINNESOTA
NATIONAL WEATHER SERVICE TWIN CITIES/CHANHASSEN MN
1100 PM CDT TUE AUG 19 2014


NOTE: "FAIR" INDICATES FEW OR NO CLOUDS BELOW 12,000 FEET WITH NO
SIGNIFICANT WEATHER AND/OR OBSTRUCTIONS TO VISIBILITY. N/A MEANS
CURRENT SKY AND/OR WEATHER CONDITIONS ARE NOT AVAILABLE.

MNZ060>063-068>070-200500-
   Twin Cities Metro

CITY           SKY/WX    TMP DP  RH WIND       PRES   REMARKS
TWIN CITIES    MOCLDY    74  64  71 S3        29.79R
ST PAUL        PTCLDY    67  67 100 S3        29.79R
CRYSTAL        MOCLDY    71  65  81 CALM      29.78R
BLAINE         CLEAR     66  66 100 CALM      29.79R
LAKEVILLE      MOCLDY    66  64  94 CALM      29.79S
EDEN PRAIRIE   PTCLDY    71  66  84 CALM      29.78R
SOUTH ST PAUL  MOCLDY    71  66  85 CALM      29.79R
LAKE ELMO      FAIR      63  63 100 CALM      29.80S FOG
$$
MNZ001>005-007-008-013>017-022>024-027-028-200500-
   Northwest Minnesota

CITY           SKY/WX    TMP DP  RH WIND       PRES   REMARKS
BEMIDJI        CLEAR     62  61  95 CALM      29.82R
HALLOCK        PTCLDY    70  63  78 SE7       29.76S
ROSEAU         CLEAR     64  59  82 SE5       29.80R
WARROAD        CLEAR     64  61  88 SE6       29.80S
THIEF RVR FALL CLEAR     64  61  88 SE7       29.79S
CROOKSTON      CLEAR     64  63  94 SE5       29.78S
FOSSTON        CLEAR     59  54  82 CALM      29.81S
DETROIT LAKES  CLEAR     68  63  83 CALM      29.81F
MOORHEAD       CLEAR     72  70  94 MISG      29.78S
PARK RAPIDS    CLEAR     64  61  90 CALM      29.81S
MAHNOMEN       FAIR      65  62  91 SE3       29.79S
$$
MNZ006-009>011-018-025>026-200500-
   North Central Minnesota

CITY           SKY/WX    TMP DP  RH WIND       PRES   REMARKS
BAUDETTE       CLEAR     63  61  93 E3        29.81R
FLAG ISLAND    CLEAR     66  63  88 CALM      29.79S
INTL FALLS     CLEAR     53  53 100 CALM      29.81S
WASKISH        CLEAR     61  59  94 CALM      29.82R FOG
BIG FORK       PTCLDY    55  55 100 CALM      29.83S
LONGVILLE      CLEAR     61  59  94 CALM      29.82S
GRAND RAPIDS   CLEAR     59  55  88 CALM      29.83S
CRANE LAKE     CLEAR     54  54 100 CALM      29.84R
ORR            MOCLDY    61  57  88 CALM      29.80S
COOK           CLEAR     57  57 100 CALM      29.83S FOG
WALKER         FAIR      60  60  99 CALM      29.81S
$$
MNZ012-019>021-037-200500-
   Northeast Minnesota

CITY           SKY/WX    TMP DP  RH WIND       PRES   REMARKS
DULUTH         MOCLDY    64  59  83 CALM      29.82R
ELY            CLOUDY    63  61  94 CALM      29.83R
HIBBING        MOCLDY    62  59  90 CALM      29.82S
EVELETH        CLOUDY    63  61  94 CALM      29.83S
DULUTH HARBOR  CLOUDY    64  61  88 N5        29.81R
TWO HARBORS    DRIZZLE   61  55  82 NE3       29.80S
SILVER BAY     FOG      N/A N/A N/A CALM        N/A  VSB 1/2
GRAND MARAIS     N/A     61  59  93 CALM      29.80S
G MARAIS ARPRT CLOUDY    57  54  88 CALM      29.84S
$$
MNZ029>031-032-039>041-046>048-054>057-064-200500-
   West Central Minnesota

CITY           SKY/WX    TMP DP  RH WIND       PRES   REMARKS
FERGUS FALLS   MOCLDY    70  61  73 CALM      29.79R
WHEATON        CLEAR     64  63  94 SE6       29.80S
MORRIS         CLEAR     66  64  94 SE5       29.79S
ALEXANDRIA     CLEAR     65  62  90 CALM      29.82S
ELBOW LAKE     FAIR      69  64  84 E5        29.79S
WADENA         CLEAR     63  61  94 CALM      29.81S
GLENWOOD       CLEAR     66  64  94 MISG      29.82S
APPLETON       CLEAR     68  64  88 CALM      29.79S
BENSON         CLEAR     64  64 100 CALM      29.80S
ORTONVILLE     CLEAR     70  64  83 CALM      29.79S
MADISON        CLEAR     70  68  94 CALM      29.80S
WILLMAR        FAIR      66  63  88 CALM      29.82S
$$
MNZ033>034-036-042>043-049>051-058-059-200500-
   Central Minnesota

CITY           SKY/WX    TMP DP  RH WIND       PRES   REMARKS
ST CLOUD       CLEAR     67  63  87 CALM      29.80R
SAUK CENTRE    FAIR      63  62  95 CALM      29.81S
PAYNESVILLE    CLEAR     62  62  97 CALM      29.81S
AITKIN         PTCLDY    64  61  88 CALM      29.81R
PINE RIVER     CLEAR     61  61 100 CALM      29.85S
BRAINERD       CLEAR     62  61  96 CALM      29.82R FOG
STAPLES        CLEAR     63  61  94 CALM      29.81S
LONG PRAIRIE   FAIR      63  61  94 CALM      29.82S
LITTLE FALLS   CLEAR     61  61 100 CALM      29.81R FOG
LITCHFIELD     CLEAR     70  66  88 CALM      29.81R
BUFFALO        CLEAR     66  62  85 CALM      29.81R
MAPLE LAKE     CLEAR     66  65  96 CALM      29.81S
$$
MNZ037-044-045-052-053-200500-
   East Central Minnesota

CITY           SKY/WX    TMP DP  RH WIND       PRES   REMARKS
PRINCETON      PTCLDY    68  66  94 CALM      29.80R
MORA           CLEAR     64  63  94 CALM      29.82R
CAMBRIDGE      CLEAR     70  61  73 CALM      29.78S
RUSH CITY      PTCLDY    67  63  89 CALM      29.80S
MOOSE LAKE     CLOUDY    61  59  94 CALM      29.81R
HINCKLEY       CLOUDY    63  61  94 CALM      29.81S
CLOQUET        MOCLDY    61  59  94 CALM      29.82S
MCGREGOR       CLOUDY    63  61  94 CALM      29.83R
$$
MNZ071>073-080-081-089-090-097-098-200500-
   Southwest Minnesota

CITY           SKY/WX    TMP DP  RH WIND       PRES   REMARKS
MONTEVIDEO     CLEAR     68  64  88 CALM      29.81R
GRANITE FALLS  CLEAR     67  65  94 CALM      29.82R
CANBY          CLEAR     68  66  94 CALM      29.82S
MARSHALL       CLEAR     68  63  83 SW3       29.81R
REDWOOD FALLS  CLEAR     70  64  81 CALM      29.80R
OLIVIA         CLEAR     70  64  83 CALM      29.80S
PIPESTONE      PTCLDY    68  64  88 CALM      29.84S
WINDOM         CLEAR     68  64  88 CALM      29.83S
WORTHINGTON    CLEAR     66  10  11 SW5       29.85S
JACKSON        CLEAR     66  63  88 CALM      29.85R
TRACY          CLEAR     70  65  86 CALM      29.83R
SLAYTON        CLEAR     66  62  87 CALM      29.85S
$$
MNZ065>067-074>077-082>085-091>093-200500-
   South Central Minnesota

CITY           SKY/WX    TMP DP  RH WIND       PRES   REMARKS
MANKATO        CLEAR     68  61  77 SW5       29.80R
NEW ULM        CLEAR     66  66 100 CALM      29.81R
ST JAMES       CLEAR     66  64  94 CALM      29.82R
FAIRMONT       CLEAR     68  59  73 CALM      29.82R
GLENCOE        CLEAR     68  62  83 CALM      29.79S
FARIBAULT      CLEAR     66  61  82 CALM      29.80S HAZE
OWATONNA       CLEAR     64  63  94 CALM      29.81R
WASECA         CLEAR     63  57  82 CALM      29.82R
ALBERT LEA     CLEAR     66  66 100 CALM      29.81S FOG
$$
MNZ078>079-086>088-094>096-200500-
   Southeast Minnesota

CITY           SKY/WX    TMP DP  RH WIND       PRES   REMARKS
ROCHESTER      PTCLDY    66  63  90 CALM      29.82R
RED WING       MOCLDY    66  63  88 CALM      29.78R
STANTON        PTCLDY    66  64  91 CALM      29.78S
DODGE CENTER   PTCLDY    64  64 100 CALM      29.82R
WINONA         PTCLDY    70  66  88 CALM      29.78S
AUSTIN         CLEAR     64  63  94 CALM      29.81S
PRESTON        PTCLDY    65  65  99 CALM      29.82S
$$
ABBREVIATIONS USED IN REMARKS
   TC - TEMPERATURES IN CELSIUS
  WCI - WIND CHILL INDEX
   HX - HEAT INDEX
  VSB - VISIBILITY
$$


USA.gov is the U.S. government's official web portal to all federal, state and local government web resources and services.